Tracking 35334 objects as of 13-Sep-2026
HD Live streaming from Space Station
objects crossing your sky now

OBJECT B


OBJECT B is no longer on orbit


NORAD ID: 44487
Int'l Code: 2019-052B
Launch date: August 17, 2019
Source: People's Republic of China (PRC)
Launch site: Jiuquan Satellite Launch Center, China (JSC)
Decay date: 2025-02-25
Your satellite tracking list
Your tracking list is empty




NASA's NSSDC Master Catalog

Two Line Element Set (TLE):
1 44487U 19052B   25050.17604496  .05815369  24385-5  20540-2 0  9990
2 44487  97.3640 135.4831 0008513 270.7756  89.2560 16.25055223305249
Source of the keplerian elements: AFSPC